Location: Newark
(48.4472°N, 1.4892°E)
Time: 10:04:31
(UTC+00:00)

Transit 4A - Pass Details

Date: 28 November 2019
Orbit: 870 x 974 km, 66.8° (Epoch: 14 December)

Event Time Altitude Azimuth Distance (km) Brightness Sun altitude
Rises 18:18:38 0° 168° (SSE) 3,624 11.0 -21.8°
Reaches altitude 10° 18:21:47 10° 153° (SSE) 2,668 10.1 -22.3°
Enters shadow 18:22:42 13° 147° (SSE) 2,436 9.8 -22.4°
